FW1385 Weather Reports


Display with metric or nautical units.
time (UTC)temp
F
wind
direction
speed
MPH
gust
MPH
rain 1hr
in
rain 24hr
in
rain mn
in
humidity
%
barometer
mb
20260503213917 67 1 1.0 6.0 0.00 0.00 0.00 41 1015.1
20260503213903 67 2 1.0 6.0 0.00 0.00 0.00 41 1015.1
20260503213803 67 5 1.0 6.0 0.00 0.00 0.00 41 1015.2
20260503213604 67 9 1.0 6.0 0.00 0.00 0.00 39 1015.2
20260503213503 67 13 1.0 4.0 0.00 0.00 0.00 43 1015.2
20260503213404 67 18 1.0 3.0 0.00 0.00 0.00 45 1015.2
20260503213304 67 12 1.0 3.0 0.00 0.00 0.00 46 1015.2
20260503213217 67 1 1.0 3.0 0.00 0.00 0.00 46 1015.2
20260503213204 67 355 1.0 3.0 0.00 0.00 0.00 43 1015.2
20260503213103 67 334 1.0 3.0 0.00 0.00 0.00 41 1015.2
20260503213018 67 322 1.0 3.0 0.00 0.00 0.00 43 1015.2
20260503212903 67 306 1.0 3.0 0.00 0.00 0.00 44 1015.2
20260503212703 67 290 1.0 3.0 0.00 0.00 0.00 44 1015.3
20260503212617 67 293 1.0 3.0 0.00 0.00 0.00 44 1015.3
20260503212604 67 293 1.0 3.0 0.00 0.00 0.00 43 1015.3
20260503212503 67 288 1.0 3.0 0.00 0.00 0.00 45 1015.3
20260503212304 67 289 1.0 3.0 0.00 0.00 0.00 47 1015.4
20260503212203 67 295 1.0 3.0 0.00 0.00 0.00 46 1015.4
20260503212118 67 298 1.0 3.0 0.00 0.00 0.00 44 1015.4
20260503212103 67 297 1.0 3.0 0.00 0.00 0.00 43 1015.4
20260503212004 67 288 1.0 3.0 0.00 0.00 0.00 42 1015.5
20260503211804 67 287 1.0 3.0 0.00 0.00 0.00 39 1015.5
20260503211703 67 286 0.0 3.0 0.00 0.00 0.00 40 1015.5
20260503211604 67 285 1.0 3.0 0.00 0.00 0.00 45 1015.5
20260503211503 67 296 1.0 4.0 0.00 0.00 0.00 44 1015.6
20260503211403 67 298 1.0 4.0 0.00 0.00 0.00 43 1015.5
20260503211303 67 299 1.0 4.0 0.00 0.00 0.00 43 1015.5
20260503211203 67 300 1.0 4.0 0.00 0.00 0.00 42 1015.6
20260503211104 67 302 1.0 4.0 0.00 0.00 0.00 44 1015.6
20260503210903 67 299 1.0 4.0 0.00 0.00 0.00 41 1015.7
20260503210803 67 297 1.0 4.0 0.00 0.00 0.00 41 1015.7
20260503210703 67 295 1.0 4.0 0.00 0.00 0.00 40 1015.8
20260503210618 67 295 1.0 4.0 0.00 0.00 0.00 41 1015.8
20260503210603 67 295 1.0 4.0 0.00 0.00 0.00 41 1015.7
20260503210504 67 286 1.0 4.0 0.00 0.00 0.00 42 1015.7
20260503210303 67 281 1.0 5.0 0.00 0.00 0.00 41 1015.8
20260503210203 67 287 1.0 8.0 0.00 0.00 0.00 40 1015.8
20260503210005 67 281 1.0 8.0 0.00 0.00 0.00 43 1015.8
20260503205903 67 282 1.0 8.0 0.00 0.00 0.00 43 1015.8
20260503205817 67 277 2.0 8.0 0.00 0.00 0.00 41 1015.8
20260503205804 67 273 2.0 8.0 0.00 0.00 0.00 44 1015.8
20260503205704 67 283 2.0 8.0 0.00 0.00 0.00 42 1015.8
20260503205503 67 288 2.0 8.0 0.00 0.00 0.00 41 1015.8
20260503205404 67 294 2.0 8.0 0.00 0.00 0.00 39 1015.8
20260503205304 67 298 2.0 8.0 0.00 0.00 0.00 39 1015.8
20260503205203 67 291 1.0 4.0 0.00 0.00 0.00 41 1015.9
20260503205103 67 279 1.0 3.0 0.00 0.00 0.00 42 1015.9
20260503205018 67 276 1.0 3.0 0.00 0.00 0.00 42 1015.9
20260503205003 67 275 1.0 3.0 0.00 0.00 0.00 42 1015.9
20260503204903 67 287 1.0 3.0 0.00 0.00 0.00 42 1015.9
20260503204703 67 296 1.0 3.0 0.00 0.00 0.00 41 1016.0
20260503204603 67 303 1.0 3.0 0.00 0.00 0.00 43 1015.9
20260503204504 67 301 1.0 3.0 0.00 0.00 0.00 41 1015.9
20260503204404 67 298 1.0 3.0 0.00 0.00 0.00 41 1015.9
20260503204303 67 291 1.0 3.0 0.00 0.00 0.00 41 1015.9
20260503204204 67 293 1.0 2.0 0.00 0.00 0.00 41 1015.9
20260503204119 67 301 1.0 3.0 0.00 0.00 0.00 42 1016.0
20260503204103 67 303 1.0 3.0 0.00 0.00 0.00 42 1016.0
20260503204003 67 306 1.0 4.0 0.00 0.00 0.00 39 1016.0
20260503203804 67 302 1.0 4.0 0.00 0.00 0.00 41 1016.1
20260503203703 67 307 1.0 4.0 0.00 0.00 0.00 43 1016.1
20260503203604 67 307 1.0 4.0 0.00 0.00 0.00 41 1016.2
20260503203517 67 308 1.0 4.0 0.00 0.00 0.00 40 1016.2
20260503203504 67 310 1.0 4.0 0.00 0.00 0.00 40 1016.2
20260503203318 67 320 1.0 4.0 0.00 0.00 0.00 38 1016.2
20260503203204 67 327 1.0 4.0 0.00 0.00 0.00 38 1016.2
20260503203004 68 342 1.0 4.0 0.00 0.00 0.00 38 1016.3
20260503202904 68 344 1.0 3.0 0.00 0.00 0.00 43 1016.3
20260503202817 68 348 1.0 3.0 0.00 0.00 0.00 41 1016.3
20260503202803 68 347 1.0 3.0 0.00 0.00 0.00 42 1016.3
20260503202703 68 347 1.0 3.0 0.00 0.00 0.00 43 1016.3
20260503202503 68 354 1.0 3.0 0.00 0.00 0.00 42 1016.4
20260503202403 68 350 1.0 3.0 0.00 0.00 0.00 41 1016.4
20260503202318 67 348 1.0 3.0 0.00 0.00 0.00 42 1016.4
20260503202304 67 347 1.0 3.0 0.00 0.00 0.00 41 1016.4
20260503202203 67 340 1.0 3.0 0.00 0.00 0.00 41 1016.4
20260503202004 67 331 1.0 4.0 0.00 0.00 0.00 38 1016.4
20260503201903 67 331 1.0 4.0 0.00 0.00 0.00 37 1016.4
20260503201804 67 334 1.0 4.0 0.00 0.00 0.00 41 1016.5
20260503201703 67 338 1.0 4.0 0.00 0.00 0.00 39 1016.5
20260503201603 67 338 1.0 4.0 0.00 0.00 0.00 38 1016.5
20260503201404 67 346 1.0 4.0 0.00 0.00 0.00 38 1016.6
20260503201303 67 351 1.0 4.0 0.00 0.00 0.00 39 1016.6
20260503201203 67 356 1.0 4.0 0.00 0.00 0.00 38 1016.7
20260503201117 67 357 1.0 4.0 0.00 0.00 0.00 39 1016.7
20260503201104 66 357 1.0 4.0 0.00 0.00 0.00 39 1016.7
20260503201004 66 360 2.0 4.0 0.00 0.00 0.00 39 1016.7
20260503200804 67 344 2.0 7.0 0.00 0.00 0.00 38 1016.8
20260503200703 67 338 2.0 7.0 0.00 0.00 0.00 39 1016.8
20260503200604 67 336 2.0 7.0 0.00 0.00 0.00 37 1016.8
20260503200503 67 329 2.0 7.0 0.00 0.00 0.00 39 1016.8
20260503200403 67 322 2.0 7.0 0.00 0.00 0.00 41 1016.8
20260503200303 67 313 2.0 7.0 0.00 0.00 0.00 39 1016.8
20260503200217 67 316 2.0 9.0 0.00 0.00 0.00 40 1016.8
20260503200203 66 317 2.0 9.0 0.00 0.00 0.00 40 1016.8
20260503195904 67 294 2.0 9.0 0.00 0.00 0.00 36 1016.9
20260503195803 67 251 2.0 9.0 0.00 0.00 0.00 38 1016.9
20260503195703 67 222 2.0 9.0 0.00 0.00 0.00 39 1016.9
20260503195603 66 182 2.0 9.0 0.00 0.00 0.00 38 1016.9
20260503195503 66 167 2.0 9.0 0.00 0.00 0.00 38 1017.0
20260503195403 66 157 2.0 9.0 0.00 0.00 0.00 38 1017.0
20260503195304 66 143 2.0 9.0 0.00 0.00 0.00 39 1017.0
20260503195204 66 146 2.0 3.0 0.00 0.00 0.00 41 1017.0
20260503195103 66 149 2.0 3.0 0.00 0.00 0.00 39 1017.0
20260503195005 65 149 2.0 3.0 0.00 0.00 0.00 37 1017.1
20260503194903 65 156 2.0 3.0 0.00 0.00 0.00 41 1017.1
20260503194804 65 162 1.0 3.0 0.00 0.00 0.00 38 1017.1
20260503194704 66 180 1.0 3.0 0.00 0.00 0.00 40 1017.3
20260503194603 66 217 1.0 3.0 0.00 0.00 0.00 42 1017.3
20260503194504 66 285 1.0 3.0 0.00 0.00 0.00 41 1017.3
20260503194403 66 305 1.0 3.0 0.00 0.00 0.00 41 1017.3
20260503194303 66 297 1.0 3.0 0.00 0.00 0.00 39 1017.3
20260503194203 66 305 1.0 3.0 0.00 0.00 0.00 36 1017.3
20260503194103 66 307 1.0 3.0 0.00 0.00 0.00 35 1017.3
20260503194003 66 306 1.0 3.0 0.00 0.00 0.00 37 1017.3
20260503193903 66 307 1.0 3.0 0.00 0.00 0.00 37 1017.3
20260503193703 65 309 1.0 3.0 0.00 0.00 0.00 43 1017.3
20260503193603 65 305 1.0 3.0 0.00 0.00 0.00 39 1017.3
20260503193504 65 297 1.0 3.0 0.00 0.00 0.00 44 1017.3
20260503193403 65 296 1.0 3.0 0.00 0.00 0.00 36 1017.4
20260503193304 65 289 1.0 3.0 0.00 0.00 0.00 37 1017.4
20260503193203 66 142 1.0 3.0 0.00 0.00 0.00 37 1017.4
20260503193103 66 104 1.0 3.0 0.00 0.00 0.00 37 1017.5
20260503193004 66 106 1.0 3.0 0.00 0.00 0.00 35 1017.5
20260503192904 67 125 1.0 3.0 0.00 0.00 0.00 39 1017.5
20260503192804 67 123 1.0 3.0 0.00 0.00 0.00 43 1017.5
20260503192717 67 126 1.0 3.0 0.00 0.00 0.00 41 1017.5
20260503192704 67 125 1.0 3.0 0.00 0.00 0.00 41 1017.5
20260503192605 67 120 2.0 3.0 0.00 0.00 0.00 41 1017.5
20260503192404 66 150 2.0 4.0 0.00 0.00 0.00 38 1017.6
20260503192305 66 283 2.0 4.0 0.00 0.00 0.00 40 1017.5
20260503192203 66 297 2.0 4.0 0.00 0.00 0.00 40 1017.5
20260503192104 66 307 2.0 7.0 0.00 0.00 0.00 44 1017.5
20260503192004 66 309 2.0 7.0 0.00 0.00 0.00 38 1017.5
20260503191903 67 324 2.0 7.0 0.00 0.00 0.00 40 1017.5
20260503191804 66 325 2.0 7.0 0.00 0.00 0.00 40 1017.5
20260503191704 67 326 1.0 7.0 0.00 0.00 0.00 40 1017.5
20260503191603 67 329 1.0 7.0 0.00 0.00 0.00 38 1017.5
20260503191518 67 326 1.0 7.0 0.00 0.00 0.00 39 1017.5
20260503191503 67 328 1.0 7.0 0.00 0.00 0.00 39 1017.5
20260503191318 67 328 1.0 7.0 0.00 0.00 0.00 39 1017.5
20260503191203 67 319 1.0 7.0 0.00 0.00 0.00 42 1017.5
20260503191003 67 169 2.0 7.0 0.00 0.00 0.00 41 1017.6
20260503190903 66 171 2.0 7.0 0.00 0.00 0.00 43 1017.6
20260503190805 66 173 2.0 7.0 0.00 0.00 0.00 42 1017.6
20260503190703 66 185 2.0 7.0 0.00 0.00 0.00 40 1017.6
20260503190604 66 179 2.0 7.0 0.00 0.00 0.00 40 1017.7
20260503190504 66 154 2.0 6.0 0.00 0.00 0.00 42 1017.7
20260503190403 65 149 2.0 6.0 0.00 0.00 0.00 40 1017.7
20260503190304 65 155 2.0 6.0 0.00 0.00 0.00 45 1017.7
20260503190204 65 155 2.0 6.0 0.00 0.00 0.00 43 1017.7
20260503190104 65 14 2.0 8.0 0.00 0.00 0.00 45 1017.7
20260503190005 66 296 2.0 8.0 0.00 0.00 0.00 44 1017.7
20260503185903 66 307 2.0 8.0 0.00 0.00 0.00 40 1017.7
20260503185804 66 307 2.0 8.0 0.00 0.00 0.00 43 1017.8
20260503185703 66 308 2.0 8.0 0.00 0.00 0.00 40 1017.8
20260503185603 66 297 2.0 8.0 0.00 0.00 0.00 41 1017.8
20260503185503 66 294 2.0 8.0 0.00 0.00 0.00 45 1017.9
20260503185403 66 298 2.0 8.0 0.00 0.00 0.00 43 1017.9
20260503185317 66 302 2.0 8.0 0.00 0.00 0.00 40 1017.9
20260503185305 66 303 2.0 8.0 0.00 0.00 0.00 40 1017.9
20260503185203 66 301 2.0 8.0 0.00 0.00 0.00 41 1017.9
20260503185005 66 300 2.0 5.0 0.00 0.00 0.00 41 1017.9
20260503184903 66 306 2.0 5.0 0.00 0.00 0.00 42 1017.9
20260503184803 65 322 1.0 5.0 0.00 0.00 0.00 42 1017.9
20260503184703 65 328 1.0 4.0 0.00 0.00 0.00 44 1017.9
20260503184603 65 335 1.0 3.0 0.00 0.00 0.00 43 1017.9
20260503184503 65 335 1.0 5.0 0.00 0.00 0.00 40 1017.9
20260503184403 65 341 1.0 5.0 0.00 0.00 0.00 40 1017.9
20260503184304 65 350 1.0 5.0 0.00 0.00 0.00 45 1017.9
20260503184204 65 1 1.0 5.0 0.00 0.00 0.00 43 1017.9
20260503184105 65 8 2.0 5.0 0.00 0.00 0.00 43 1017.9
20260503184004 65 11 2.0 5.0 0.00 0.00 0.00 43 1017.9
20260503183904 66 359 2.0 5.0 0.00 0.00 0.00 40 1017.9
20260503183803 66 347 2.0 5.0 0.00 0.00 0.00 40 1017.9
20260503183704 66 4 2.0 5.0 0.00 0.00 0.00 40 1018.0
20260503183604 66 35 1.0 5.0 0.00 0.00 0.00 40 1018.0
20260503183518 66 96 1.0 5.0 0.00 0.00 0.00 42 1018.0
20260503183503 66 105 1.0 3.0 0.00 0.00 0.00 42 1018.0
20260503183403 65 150 1.0 3.0 0.00 0.00 0.00 44 1018.1
20260503183203 65 176 1.0 3.0 0.00 0.00 0.00 42 1018.2
20260503183103 66 192 1.0 3.0 0.00 0.00 0.00 45 1018.2
20260503183003 66 204 1.0 4.0 0.00 0.00 0.00 44 1018.1
20260503182904 66 215 1.0 4.0 0.00 0.00 0.00 43 1018.1
20260503182804 65 215 1.0 4.0 0.00 0.00 0.00 43 1018.1
20260503182704 66 213 1.0 4.0 0.00 0.00 0.00 43 1018.2
20260503182603 65 206 2.0 4.0 0.00 0.00 0.00 42 1018.2
20260503182518 66 213 2.0 4.0 0.00 0.00 0.00 47 1018.2
20260503182503 66 216 2.0 4.0 0.00 0.00 0.00 47 1018.2
20260503182403 66 232 2.0 4.0 0.00 0.00 0.00 43 1018.3
20260503182204 65 266 2.0 4.0 0.00 0.00 0.00 42 1018.3
20260503182103 65 273 2.0 4.0 0.00 0.00 0.00 41 1018.3
20260503182003 65 262 2.0 4.0 0.00 0.00 0.00 41 1018.3
20260503181903 65 252 2.0 4.0 0.00 0.00 0.00 44 1018.3
20260503181803 65 251 2.0 4.0 0.00 0.00 0.00 43 1018.3
20260503181704 65 269 1.0 4.0 0.00 0.00 0.00 45 1018.3
20260503181603 65 311 1.0 4.0 0.00 0.00 0.00 45 1018.3
20260503181505 65 336 1.0 4.0 0.00 0.00 0.00 48 1018.3
20260503181403 64 350 1.0 4.0 0.00 0.00 0.00 45 1018.3
20260503181303 64 350 1.0 4.0 0.00 0.00 0.00 47 1018.3
20260503181203 63 343 1.0 4.0 0.00 0.00 0.00 45 1018.3
20260503181104 63 359 1.0 4.0 0.00 0.00 0.00 45 1018.3
20260503181003 63 344 1.0 4.0 0.00 0.00 0.00 45 1018.3
20260503180903 63 339 1.0 4.0 0.00 0.00 0.00 46 1018.4
20260503180803 62 338 1.0 4.0 0.00 0.00 0.00 44 1018.5
20260503180703 63 325 1.0 4.0 0.00 0.00 0.00 43 1018.5
20260503180604 64 314 1.0 4.0 0.00 0.00 0.00 44 1018.4
20260503180503 64 299 1.0 4.0 0.00 0.00 0.00 43 1018.4
20260503180403 65 298 1.0 4.0 0.00 0.00 0.00 41 1018.5
20260503180304 65 301 1.0 4.0 0.00 0.00 0.00 43 1018.6
20260503180203 65 309 1.0 3.0 0.00 0.00 0.00 47 1018.6
20260503180116 65 319 1.0 3.0 0.00 0.00 0.00 47 1018.5
20260503180103 65 322 1.0 3.0 0.00 0.00 0.00 50 1018.5
20260503180003 65 328 1.0 3.0 0.00 0.00 0.00 48 1018.5
20260503175803 65 330 1.0 3.0 0.00 0.00 0.00 45 1018.5
20260503175703 65 333 1.0 3.0 0.00 0.00 0.00 45 1018.5
20260503175604 65 336 1.0 3.0 0.00 0.00 0.00 46 1018.5
20260503175504 65 336 1.0 3.0 0.00 0.00 0.00 46 1018.5
20260503175403 65 341 1.0 3.0 0.00 0.00 0.00 46 1018.5
20260503175204 65 1 2.0 4.0 0.00 0.00 0.00 43 1018.6
20260503175118 65 291 2.0 4.0 0.00 0.00 0.00 46 1018.6
20260503175103 65 266 2.0 4.0 0.00 0.00 0.00 46 1018.6
20260503175003 66 250 2.0 4.0 0.00 0.00 0.00 42 1018.6
20260503174803 66 208 1.0 4.0 0.00 0.00 0.00 45 1018.7
20260503174704 66 211 1.0 4.0 0.00 0.00 0.00 46 1018.7
20260503174604 66 221 1.0 4.0 0.00 0.00 0.00 44 1018.6
20260503174503 65 251 2.0 4.0 0.00 0.00 0.00 46 1018.6
20260503174403 65 276 2.0 4.0 0.00 0.00 0.00 46 1018.6
20260503174304 65 296 2.0 4.0 0.00 0.00 0.00 46 1018.6
20260503174203 65 309 2.0 6.0 0.00 0.00 0.00 47 1018.6
20260503174104 65 312 2.0 6.0 0.00 0.00 0.00 46 1018.6
20260503174003 65 313 2.0 6.0 0.00 0.00 0.00 44 1018.7
20260503173903 65 316 2.0 6.0 0.00 0.00 0.00 44 1018.7
20260503173803 65 317 2.0 6.0 0.00 0.00 0.00 42 1018.6
20260503173703 65 318 2.0 6.0 0.00 0.00 0.00 41 1018.7
20260503173603 65 318 2.0 6.0 0.00 0.00 0.00 40 1018.7
20260503173504 65 324 2.0 6.0 0.00 0.00 0.00 41 1018.7
20260503173403 65 330 2.0 6.0 0.00 0.00 0.00 42 1018.7
20260503173303 65 328 1.0 6.0 0.00 0.00 0.00 44 1018.8
20260503173219 65 326 1.0 6.0 0.00 0.00 0.00 44 1018.8
20260503173203 65 323 1.0 5.0 0.00 0.00 0.00 42 1018.8
20260503173104 65 327 1.0 5.0 0.00 0.00 0.00 42 1018.8
20260503172919 65 36 1.0 7.0 0.00 0.00 0.00 42 1018.9
20260503172903 65 64 1.0 7.0 0.00 0.00 0.00 42 1018.9
20260503172804 65 119 1.0 7.0 0.00 0.00 0.00 43 1018.9
20260503172603 65 249 1.0 7.0 0.00 0.00 0.00 44 1018.9
20260503172504 64 281 1.0 7.0 0.00 0.00 0.00 44 1018.9
20260503172403 64 291 1.0 7.0 0.00 0.00 0.00 46 1018.9
20260503172305 64 304 2.0 7.0 0.00 0.00 0.00 44 1019.0
20260503172203 64 301 2.0 7.0 0.00 0.00 0.00 44 1019.0
20260503172103 64 294 2.0 7.0 0.00 0.00 0.00 45 1019.0
20260503172017 64 290 2.0 6.0 0.00 0.00 0.00 45 1019.0
20260503172004 64 293 2.0 7.0 0.00 0.00 0.00 45 1019.0
20260503171904 64 300 2.0 7.0 0.00 0.00 0.00 44 1019.1
20260503171703 63 303 2.0 7.0 0.00 0.00 0.00 43 1019.1
20260503171603 64 302 2.0 7.0 0.00 0.00 0.00 41 1019.1
20260503171503 64 301 2.0 7.0 0.00 0.00 0.00 43 1019.1
20260503171403 64 300 2.0 7.0 0.00 0.00 0.00 43 1019.2
20260503171317 64 295 2.0 7.0 0.00 0.00 0.00 44 1019.2
20260503171303 64 294 2.0 7.0 0.00 0.00 0.00 44 1019.2
20260503171203 64 298 2.0 7.0 0.00 0.00 0.00 42 1019.2
20260503171003 64 304 1.0 6.0 0.00 0.00 0.00 42 1019.2
20260503170904 64 296 1.0 6.0 0.00 0.00 0.00 41 1019.2
20260503170803 64 299 1.0 6.0 0.00 0.00 0.00 40 1019.2
20260503170704 64 298 1.0 5.0 0.00 0.00 0.00 41 1019.3
20260503170603 64 297 1.0 4.0 0.00 0.00 0.00 40 1019.3
20260503170503 64 285 1.0 4.0 0.00 0.00 0.00 40 1019.3
20260503170404 64 271 1.0 4.0 0.00 0.00 0.00 40 1019.3
20260503170303 63 273 1.0 4.0 0.00 0.00 0.00 41 1019.3
20260503170203 63 289 1.0 5.0 0.00 0.00 0.00 40 1019.3
20260503160204 61 346 1.0 6.0 0.00 0.00 0.00 51 1019.8
20260503151003 57 47 2.0 5.0 0.00 0.00 0.00 63 1020.3
20260503150803 57 46 2.0 5.0 0.00 0.00 0.00 64 1020.3
20260503150704 57 46 2.0 5.0 0.00 0.00 0.00 65 1020.3
20260503150618 57 45 2.0 5.0 0.00 0.00 0.00 64 1020.2
20260503150603 57 45 2.0 5.0 0.00 0.00 0.00 66 1020.2
20260503150519 57 44 2.0 5.0 0.00 0.00 0.00 69 1020.2
20260503150503 57 43 2.0 5.0 0.00 0.00 0.00 69 1020.3
20260503150417 57 44 2.0 4.0 0.00 0.00 0.00 69 1020.3
20260503150117 56 47 2.0 4.0 0.00 0.00 0.00 73 1020.3
20260503140203 48 358 1.0 4.0 0.00 0.00 0.00 96 1020.3
20260503131403 42 0 0.0 0.0 0.00 0.00 0.00 95 1020.3
20260503131304 42 0 0.0 0.0 0.00 0.00 0.00 95 1020.4
20260503131203 42 0 0.0 0.0 0.00 0.00 0.00 95 1020.3
20260503131103 42 0 0.0 0.0 0.00 0.00 0.00 95 1020.3
20260503131003 42 0 0.0 0.0 0.00 0.00 0.00 95 1020.3
20260503130903 42 0 0.0 0.0 0.00 0.00 0.00 95 1020.3
20260503130803 42 0 0.0 0.0 0.00 0.00 0.00 95 1020.3
20260503130704 42 0 0.0 0.0 0.00 0.00 0.00 95 1020.3
20260503130604 41 0 0.0 0.0 0.00 0.00 0.00 95 1020.3
20260503130503 41 0 0.0 0.0 0.00 0.00 0.00 94 1020.3
20260503130404 41 0 0.0 0.0 0.00 0.00 0.00 94 1020.3
20260503130303 41 0 0.0 0.0 0.00 0.00 0.00 94 1020.3
20260503130203 41 0 0.0 0.0 0.00 0.00 0.00 94 1020.2
20260503130104 41 0 0.0 0.0 0.00 0.00 0.00 94 1020.2
20260503120203 38 0 0.0 0.0 0.00 0.00 0.00 94 1019.9
20260503110803 36 0 0.0 0.0 0.00 0.00 0.00 92 1018.9
20260503110603 36 0 0.0 0.0 0.00 0.00 0.00 92 1018.9
20260503110503 36 0 0.0 0.0 0.00 0.00 0.00 92 1018.9
20260503110404 36 0 0.0 0.0 0.00 0.00 0.00 92 1018.8
20260503110303 36 0 0.0 0.0 0.00 0.00 0.00 92 1018.8
20260503110203 36 0 0.0 0.0 0.00 0.00 0.00 92 1018.8
20260503110104 36 0 0.0 0.0 0.00 0.00 0.00 92 1018.8
20260503100203 36 0 0.0 0.0 0.00 0.00 0.00 91 1018.6
20260503100104 36 0 0.0 0.0 0.00 0.00 0.00 91 1018.5
20260503090504 38 0 0.0 0.0 0.00 0.00 0.00 91 1018.5
20260503090404 38 0 0.0 0.0 0.00 0.00 0.00 91 1018.5
20260503090303 38 0 0.0 0.0 0.00 0.00 0.00 91 1018.5
20260503090203 38 0 0.0 0.0 0.00 0.00 0.00 91 1018.5
20260503081603 38 0 0.0 0.0 0.00 0.00 0.00 91 1018.4
20260503081503 38 0 0.0 0.0 0.00 0.00 0.00 91 1018.4
20260503081403 38 0 0.0 0.0 0.00 0.00 0.00 91 1018.4
20260503081203 38 0 0.0 0.0 0.00 0.00 0.00 91 1018.4
20260503081103 38 0 0.0 0.0 0.00 0.00 0.00 91 1018.4
20260503081004 38 0 0.0 0.0 0.00 0.00 0.00 91 1018.4
20260503080903 38 0 0.0 0.0 0.00 0.00 0.00 91 1018.3
20260503080803 38 0 0.0 0.0 0.00 0.00 0.00 91 1018.3
20260503080704 38 0 0.0 0.0 0.00 0.00 0.00 91 1018.3
20260503080604 38 0 0.0 0.0 0.00 0.00 0.00 91 1018.3
20260503080403 38 0 0.0 0.0 0.00 0.00 0.00 91 1018.3
20260503080303 38 0 0.0 0.0 0.00 0.00 0.00 91 1018.3
20260503080203 38 0 0.0 0.0 0.00 0.00 0.00 91 1018.3
20260503080103 38 0 0.0 0.0 0.00 0.00 0.00 91 1018.3
20260503072903 39 120 0.0 1.0 0.00 0.00 0.00 90 1018.2
20260503072803 39 120 0.0 1.0 0.00 0.00 0.00 91 1018.2
20260503072704 39 120 0.0 1.0 0.00 0.00 0.00 90 1018.2
20260503072603 39 120 0.0 1.0 0.00 0.00 0.00 90 1018.2
20260503072503 39 120 0.0 1.0 0.00 0.00 0.00 90 1018.2
20260503072403 39 120 0.0 1.0 0.00 0.00 0.00 90 1018.2
20260503072305 39 120 0.0 1.0 0.00 0.00 0.00 90 1018.2
20260503072204 39 120 0.0 1.0 0.00 0.00 0.00 90 1018.2
20260503072104 39 120 0.0 1.0 0.00 0.00 0.00 90 1018.2
20260503071803 39 120 0.0 1.0 0.00 0.00 0.00 90 1018.1
20260503071704 39 0 0.0 0.0 0.00 0.00 0.00 90 1018.1
20260503071604 39 0 0.0 0.0 0.00 0.00 0.00 90 1018.1
20260503071503 39 0 0.0 0.0 0.00 0.00 0.00 90 1018.1
20260503071404 39 0 0.0 0.0 0.00 0.00 0.00 90 1018.1
20260503071303 39 0 0.0 0.0 0.00 0.00 0.00 90 1018.1
20260503071104 39 0 0.0 0.0 0.00 0.00 0.00 90 1018.1
20260503071003 39 0 0.0 0.0 0.00 0.00 0.00 90 1018.1
20260503070904 39 0 0.0 0.0 0.00 0.00 0.00 90 1018.1
20260503070803 39 0 0.0 0.0 0.00 0.00 0.00 90 1018.1
20260503070703 39 0 0.0 0.0 0.00 0.00 0.00 90 1018.0
20260503070518 39 0 0.0 0.0 0.00 0.00 0.00 90 1018.0
20260503070403 39 0 0.0 0.0 0.00 0.00 0.00 90 1017.9
20260503070203 39 0 0.0 0.0 0.00 0.00 0.00 90 1018.0
20260503070103 39 0 0.0 0.0 0.00 0.00 0.00 90 1017.9
20260503060303 41 120 0.0 1.0 0.00 0.00 0.00 90 1018.1
20260503060203 41 120 0.0 1.0 0.00 0.00 0.00 90 1018.1
20260503060103 41 120 0.0 1.0 0.00 0.00 0.00 89 1018.1
20260503055104 41 0 0.0 0.0 0.00 0.00 0.00 89 1017.9
20260503055003 41 0 0.0 0.0 0.00 0.00 0.00 89 1017.9
20260503054904 41 0 0.0 0.0 0.00 0.00 0.00 89 1017.9
20260503054803 41 0 0.0 0.0 0.00 0.00 0.00 89 1017.9
20260503054703 41 0 0.0 0.0 0.00 0.00 0.00 89 1017.9
20260503054604 41 0 0.0 0.0 0.00 0.00 0.00 89 1017.9
20260503054503 41 0 0.0 0.0 0.00 0.00 0.00 89 1017.9
20260503054404 41 0 0.0 0.0 0.00 0.00 0.00 89 1018.0
20260503054304 41 0 0.0 0.0 0.00 0.00 0.00 89 1018.0
20260503054203 41 0 0.0 0.0 0.00 0.00 0.00 89 1018.0
20260503054104 41 0 0.0 0.0 0.00 0.00 0.00 89 1018.0
20260503054003 41 0 0.0 0.0 0.00 0.00 0.00 89 1018.0
20260503053904 41 0 0.0 0.0 0.00 0.00 0.00 89 1018.0
20260503053803 41 0 0.0 0.0 0.00 0.00 0.00 89 1018.1
20260503053603 41 0 0.0 0.0 0.00 0.00 0.00 89 1018.1
20260503053503 41 0 0.0 0.0 0.00 0.00 0.00 89 1018.1
20260503053403 41 0 0.0 0.0 0.00 0.00 0.00 89 1018.1
20260503053304 42 0 0.0 0.0 0.00 0.00 0.00 89 1018.1
20260503053204 42 0 0.0 0.0 0.00 0.00 0.00 89 1018.1
20260503052903 42 0 0.0 0.0 0.00 0.00 0.00 89 1018.0
20260503052803 42 0 0.0 0.0 0.00 0.00 0.00 89 1017.9
20260503052703 42 0 0.0 0.0 0.00 0.00 0.00 89 1017.9
20260503052504 42 0 0.0 0.0 0.00 0.00 0.00 89 1017.9
20260503052404 42 0 0.0 0.0 0.00 0.00 0.00 89 1017.9
20260503052305 42 0 0.0 0.0 0.00 0.00 0.00 89 1017.9
20260503052204 42 0 0.0 0.0 0.00 0.00 0.00 89 1017.9
20260503052103 42 0 0.0 0.0 0.00 0.00 0.00 89 1017.9
20260503051904 42 0 0.0 0.0 0.00 0.00 0.00 89 1017.9
20260503051804 42 0 0.0 0.0 0.00 0.00 0.00 89 1017.9
20260503051704 42 0 0.0 0.0 0.00 0.00 0.00 89 1017.9
20260503051503 42 0 0.0 0.0 0.00 0.00 0.00 89 1017.8
20260503051403 42 0 0.0 0.0 0.00 0.00 0.00 89 1017.8
20260503051303 42 0 0.0 0.0 0.00 0.00 0.00 89 1017.9
20260503051103 42 0 0.0 0.0 0.00 0.00 0.00 89 1017.8
20260503051003 42 120 0.0 1.0 0.00 0.00 0.00 89 1017.8
20260503050904 42 120 0.0 1.0 0.00 0.00 0.00 89 1017.8
20260503050803 42 120 0.0 1.0 0.00 0.00 0.00 89 1017.8
20260503050703 42 120 0.0 1.0 0.00 0.00 0.00 88 1017.8
20260503050604 42 120 0.0 1.0 0.00 0.00 0.00 88 1017.8
20260503050503 42 120 0.0 1.0 0.00 0.00 0.00 88 1017.8
20260503050304 42 120 0.0 1.0 0.00 0.00 0.00 88 1017.8
20260503050203 42 120 0.0 1.0 0.00 0.00 0.00 88 1017.8
20260503050104 42 120 0.0 1.0 0.00 0.00 0.00 88 1017.8
20260503045803 42 0 0.0 0.0 0.00 0.00 0.00 88 1017.8
20260503045704 42 120 0.0 1.0 0.00 0.00 0.00 88 1017.8
20260503045604 42 120 0.0 1.0 0.00 0.00 0.00 88 1017.8
20260503045503 42 120 0.0 1.0 0.00 0.00 0.00 88 1017.8
20260503045403 42 120 0.0 1.0 0.00 0.00 0.00 88 1017.7
20260503045305 42 120 0.0 1.0 0.00 0.00 0.00 88 1017.7
20260503045204 42 120 0.0 1.0 0.00 0.00 0.00 88 1017.7
20260503045103 42 120 0.0 1.0 0.00 0.00 0.00 88 1017.7
20260503045003 42 120 0.0 1.0 0.00 0.00 0.00 88 1017.7
20260503044917 42 120 0.0 1.0 0.00 0.00 0.00 88 1017.6
20260503044817 42 120 0.0 1.0 0.00 0.00 0.00 88 1017.6
20260503044804 42 120 0.0 1.0 0.00 0.00 0.00 88 1017.7
20260503044504 43 120 0.0 1.0 0.00 0.00 0.00 88 1017.6
20260503044404 43 120 0.0 1.0 0.00 0.00 0.00 88 1017.7
20260503044303 43 120 0.0 1.0 0.00 0.00 0.00 88 1017.7
20260503044203 43 120 0.0 1.0 0.00 0.00 0.00 88 1017.7
20260503044104 43 120 0.0 1.0 0.00 0.00 0.00 88 1017.6
20260503044003 43 120 0.0 1.0 0.00 0.00 0.00 88 1017.6
20260503043903 43 120 0.0 1.0 0.00 0.00 0.00 88 1017.6
20260503043803 43 120 0.0 1.0 0.00 0.00 0.00 88 1017.6
20260503043703 43 120 0.0 1.0 0.00 0.00 0.00 88 1017.6
20260503043503 43 120 0.0 1.0 0.00 0.00 0.00 88 1017.6
20260503043404 43 120 0.0 1.0 0.00 0.00 0.00 88 1017.6
20260503043303 43 120 0.0 1.0 0.00 0.00 0.00 88 1017.6
20260503043203 43 120 0.0 1.0 0.00 0.00 0.00 88 1017.6
20260503043104 43 120 0.0 1.0 0.00 0.00 0.00 88 1017.5
20260503043003 43 120 0.0 1.0 0.00 0.00 0.00 88 1017.5
20260503042904 43 120 0.0 1.0 0.00 0.00 0.00 88 1017.5
20260503042803 43 120 0.0 1.0 0.00 0.00 0.00 87 1017.5
20260503042703 43 120 0.0 1.0 0.00 0.00 0.00 87 1017.5
20260503042604 43 120 0.0 1.0 0.00 0.00 0.00 87 1017.4
20260503042504 43 0 0.0 0.0 0.00 0.00 0.00 87 1017.4
20260503042404 43 0 0.0 0.0 0.00 0.00 0.00 88 1017.4
20260503042305 43 0 0.0 0.0 0.00 0.00 0.00 88 1017.4
20260503042204 43 120 0.0 1.0 0.00 0.00 0.00 87 1017.4
20260503042103 43 120 0.0 1.0 0.00 0.00 0.00 87 1017.4
20260503041904 43 120 0.0 1.0 0.00 0.00 0.00 87 1017.4
20260503041804 43 120 0.0 1.0 0.00 0.00 0.00 87 1017.4
20260503041704 43 120 0.0 1.0 0.00 0.00 0.00 87 1017.4
20260503041603 43 120 0.0 1.0 0.00 0.00 0.00 87 1017.4
20260503041504 43 120 0.0 1.0 0.00 0.00 0.00 87 1017.4
20260503041403 43 120 0.0 1.0 0.00 0.00 0.00 87 1017.4
20260503041304 43 120 0.0 1.0 0.00 0.00 0.00 87 1017.4
20260503041216 44 120 0.0 1.0 0.00 0.00 0.00 87 1017.4
20260503041203 43 120 0.0 1.0 0.00 0.00 0.00 87 1017.4
20260503041103 43 120 0.0 1.0 0.00 0.00 0.00 87 1017.4
20260503040903 44 120 0.0 1.0 0.00 0.00 0.00 87 1017.4
20260503040804 44 120 0.0 1.0 0.00 0.00 0.00 87 1017.4
20260503040704 44 120 0.0 1.0 0.00 0.00 0.00 87 1017.4
20260503040504 44 120 0.0 1.0 0.00 0.00 0.00 87 1017.4
20260503040403 44 120 0.0 1.0 0.00 0.00 0.00 87 1017.4
20260503040303 44 120 0.0 1.0 0.00 0.00 0.00 87 1017.4
20260503040203 44 120 0.0 1.0 0.00 0.00 0.00 87 1017.4
20260503040104 44 120 0.0 1.0 0.00 0.00 0.00 87 1017.4
20260503040003 44 120 0.0 1.0 0.00 0.00 0.00 87 1017.4
20260503035904 44 120 0.0 1.0 0.00 0.00 0.00 87 1017.4
20260503035803 44 120 0.0 1.0 0.00 0.00 0.00 87 1017.4
20260503035704 44 120 0.0 1.0 0.00 0.00 0.00 87 1017.4
20260503035603 44 120 0.0 1.0 0.00 0.00 0.00 87 1017.4
20260503035503 44 120 0.0 1.0 0.00 0.00 0.00 87 1017.4
20260503035403 44 120 0.0 1.0 0.00 0.00 0.00 87 1017.4
20260503035305 44 120 0.0 1.0 0.00 0.00 0.00 87 1017.4
20260503035216 44 120 0.0 1.0 0.00 0.00 0.00 87 1017.4
20260503035103 44 120 0.0 1.0 0.00 0.00 0.00 87 1017.4
20260503034904 44 120 0.0 1.0 0.00 0.00 0.00 87 1017.4
20260503034804 44 0 0.0 0.0 0.00 0.00 0.00 87 1017.4
20260503034703 44 0 0.0 0.0 0.00 0.00 0.00 87 1017.4
20260503034603 44 0 0.0 0.0 0.00 0.00 0.00 86 1017.4
20260503034503 44 0 0.0 0.0 0.00 0.00 0.00 86 1017.4
20260503034404 44 0 0.0 0.0 0.00 0.00 0.00 86 1017.4
20260503034303 44 0 0.0 0.0 0.00 0.00 0.00 86 1017.4
20260503034203 44 0 0.0 0.0 0.00 0.00 0.00 86 1017.4
20260503034103 44 0 0.0 0.0 0.00 0.00 0.00 86 1017.4
20260503034017 44 0 0.0 0.0 0.00 0.00 0.00 86 1017.4
20260503034004 44 0 0.0 0.0 0.00 0.00 0.00 87 1017.4
20260503033903 44 0 0.0 0.0 0.00 0.00 0.00 87 1017.4
20260503033703 44 0 0.0 0.0 0.00 0.00 0.00 86 1017.4
20260503033604 44 0 0.0 0.0 0.00 0.00 0.00 86 1017.4
20260503033503 44 0 0.0 0.0 0.00 0.00 0.00 86 1017.4
20260503033403 44 0 0.0 0.0 0.00 0.00 0.00 86 1017.4
20260503033304 44 0 0.0 0.0 0.00 0.00 0.00 86 1017.4
20260503033204 44 0 0.0 0.0 0.00 0.00 0.00 86 1017.4
20260503033103 44 0 0.0 0.0 0.00 0.00 0.00 86 1017.4
20260503033003 44 0 0.0 0.0 0.00 0.00 0.00 86 1017.4
20260503032903 44 0 0.0 0.0 0.00 0.00 0.00 86 1017.4
20260503032803 44 0 0.0 0.0 0.00 0.00 0.00 86 1017.4
20260503032703 44 0 0.0 0.0 0.00 0.00 0.00 86 1017.4
20260503032603 45 0 0.0 0.0 0.00 0.00 0.00 86 1017.4
20260503032504 45 0 0.0 0.0 0.00 0.00 0.00 86 1017.4
20260503032403 45 0 0.0 0.0 0.00 0.00 0.00 86 1017.4
20260503032304 45 0 0.0 0.0 0.00 0.00 0.00 86 1017.4
20260503032004 45 0 0.0 0.0 0.00 0.00 0.00 86 1017.4
20260503031903 45 0 0.0 0.0 0.00 0.00 0.00 86 1017.4
20260503031804 45 0 0.0 0.0 0.00 0.00 0.00 86 1017.4
20260503031703 45 0 0.0 0.0 0.00 0.00 0.00 86 1017.4
20260503031618 45 0 0.0 0.0 0.00 0.00 0.00 86 1017.4
20260503031303 45 0 0.0 0.0 0.00 0.00 0.00 86 1017.4
20260503031204 45 0 0.0 0.0 0.00 0.00 0.00 86 1017.4
20260503031103 45 0 0.0 0.0 0.00 0.00 0.00 86 1017.4
20260503031003 45 0 0.0 0.0 0.00 0.00 0.00 85 1017.4
20260503030903 45 0 0.0 0.0 0.00 0.00 0.00 86 1017.4
20260503030803 45 0 0.0 0.0 0.00 0.00 0.00 86 1017.4
20260503030703 45 0 0.0 0.0 0.00 0.00 0.00 86 1017.4
20260503030603 45 0 0.0 0.0 0.00 0.00 0.00 85 1017.4
20260503030503 45 0 0.0 0.0 0.00 0.00 0.00 85 1017.4
20260503030403 45 0 0.0 0.0 0.00 0.00 0.00 85 1017.4
20260503030303 45 0 0.0 0.0 0.00 0.00 0.00 85 1017.4
20260503030203 45 0 0.0 0.0 0.00 0.00 0.00 85 1017.4
20260503025903 45 0 0.0 0.0 0.00 0.00 0.00 85 1017.4
20260503025803 45 0 0.0 0.0 0.00 0.00 0.00 85 1017.3
20260503025703 46 0 0.0 0.0 0.00 0.00 0.00 85 1017.3
20260503025604 46 0 0.0 0.0 0.00 0.00 0.00 85 1017.3
20260503025503 46 120 0.0 1.0 0.00 0.00 0.00 85 1017.3
20260503025404 46 120 0.0 1.0 0.00 0.00 0.00 85 1017.3
20260503025305 46 120 0.0 1.0 0.00 0.00 0.00 85 1017.3
20260503025203 46 120 0.0 1.0 0.00 0.00 0.00 85 1017.3
20260503025004 46 120 0.0 1.0 0.00 0.00 0.00 85 1017.3
20260503024903 46 120 0.0 1.0 0.00 0.00 0.00 85 1017.3
20260503024803 46 120 0.0 1.0 0.00 0.00 0.00 85 1017.3
20260503024703 46 120 0.0 1.0 0.00 0.00 0.00 85 1017.3
20260503024603 46 120 0.0 1.0 0.00 0.00 0.00 85 1017.3
20260503024504 46 120 0.0 1.0 0.00 0.00 0.00 85 1017.2
20260503024403 46 120 0.0 1.0 0.00 0.00 0.00 85 1017.2
20260503024304 46 120 0.0 1.0 0.00 0.00 0.00 85 1017.2
20260503024204 46 120 0.0 1.0 0.00 0.00 0.00 85 1017.2
20260503024004 46 120 0.0 1.0 0.00 0.00 0.00 85 1017.2
20260503023903 46 120 0.0 1.0 0.00 0.00 0.00 85 1017.2
20260503023803 46 120 0.0 1.0 0.00 0.00 0.00 85 1017.2
20260503023703 46 120 0.0 1.0 0.00 0.00 0.00 85 1017.2
20260503023604 46 120 0.0 1.0 0.00 0.00 0.00 85 1017.2
20260503023503 46 120 0.0 1.0 0.00 0.00 0.00 85 1017.2
20260503023403 46 120 0.0 1.0 0.00 0.00 0.00 85 1017.2
20260503023304 46 120 0.0 1.0 0.00 0.00 0.00 85 1017.2
20260503023203 46 120 0.0 1.0 0.00 0.00 0.00 85 1017.2
20260503023103 46 120 0.0 1.0 0.00 0.00 0.00 85 1017.2
20260503023003 46 120 0.0 1.0 0.00 0.00 0.00 85 1017.2
20260503022703 46 120 0.0 1.0 0.00 0.00 0.00 85 1017.2
20260503022603 46 120 0.0 1.0 0.00 0.00 0.00 85 1017.2
20260503022504 47 120 0.0 1.0 0.00 0.00 0.00 85 1017.2
20260503022403 47 120 0.0 1.0 0.00 0.00 0.00 84 1017.2
20260503022305 47 120 0.0 1.0 0.00 0.00 0.00 84 1017.2
20260503022204 47 120 0.0 1.0 0.00 0.00 0.00 84 1017.2
20260503022104 47 120 0.0 1.0 0.00 0.00 0.00 84 1017.2
20260503022004 47 120 0.0 1.0 0.00 0.00 0.00 84 1017.2
20260503021903 47 120 0.0 1.0 0.00 0.00 0.00 84 1017.2
20260503021803 47 120 0.0 1.0 0.00 0.00 0.00 84 1017.2
20260503021703 47 120 0.0 1.0 0.00 0.00 0.00 84 1017.1
20260503021604 47 120 0.0 1.0 0.00 0.00 0.00 84 1017.1
20260503021503 47 120 0.0 2.0 0.00 0.00 0.00 84 1017.1
20260503021404 47 120 0.0 2.0 0.00 0.00 0.00 84 1017.1
20260503021303 47 120 0.0 2.0 0.00 0.00 0.00 83 1017.1
20260503021204 47 120 0.0 2.0 0.00 0.00 0.00 83 1017.0
20260503021103 47 120 0.0 2.0 0.00 0.00 0.00 83 1016.9
20260503021004 47 120 0.0 2.0 0.00 0.00 0.00 83 1016.9
20260503020904 47 120 0.0 2.0 0.00 0.00 0.00 83 1016.9
20260503020804 47 120 0.0 2.0 0.00 0.00 0.00 83 1016.9
20260503020703 47 120 0.0 2.0 0.00 0.00 0.00 83 1016.9
20260503020603 47 120 0.0 2.0 0.00 0.00 0.00 83 1017.0
20260503020403 47 120 0.0 1.0 0.00 0.00 0.00 83 1017.0
20260503020319 47 120 0.0 1.0 0.00 0.00 0.00 83 1017.0
20260503020303 47 120 0.0 1.0 0.00 0.00 0.00 83 1016.9
20260503020003 48 120 0.0 1.0 0.00 0.00 0.00 82 1016.9
20260503015904 48 120 0.0 1.0 0.00 0.00 0.00 82 1016.9
20260503015803 48 120 0.0 1.0 0.00 0.00 0.00 82 1016.9
20260503015703 48 120 0.0 1.0 0.00 0.00 0.00 82 1016.9
20260503015603 48 120 0.0 1.0 0.00 0.00 0.00 82 1016.9
20260503015504 48 120 0.0 1.0 0.00 0.00 0.00 82 1016.9
20260503015403 48 120 0.0 1.0 0.00 0.00 0.00 82 1016.9
20260503015305 48 120 0.0 1.0 0.00 0.00 0.00 82 1016.8
20260503015204 48 120 0.0 1.0 0.00 0.00 0.00 82 1016.8
20260503015103 48 120 0.0 1.0 0.00 0.00 0.00 82 1016.8
20260503015003 48 120 0.0 1.0 0.00 0.00 0.00 81 1016.8
20260503014903 48 120 0.0 1.0 0.00 0.00 0.00 81 1016.8
20260503014803 48 120 0.0 1.0 0.00 0.00 0.00 81 1016.8
20260503014703 48 120 0.0 1.0 0.00 0.00 0.00 81 1016.8
20260503014603 48 120 0.0 1.0 0.00 0.00 0.00 81 1016.9
20260503014504 49 120 0.0 1.0 0.00 0.00 0.00 81 1016.8
20260503014404 49 120 0.0 1.0 0.00 0.00 0.00 81 1016.8
20260503014303 49 120 0.0 1.0 0.00 0.00 0.00 81 1016.8
20260503014104 49 120 0.0 1.0 0.00 0.00 0.00 81 1016.8
20260503014003 49 120 0.0 1.0 0.00 0.00 0.00 81 1016.8
20260503013903 49 120 0.0 1.0 0.00 0.00 0.00 81 1016.8
20260503013803 49 120 0.0 1.0 0.00 0.00 0.00 81 1016.8
20260503013719 49 120 0.0 1.0 0.00 0.00 0.00 81 1016.8
20260503013703 49 120 0.0 1.0 0.00 0.00 0.00 80 1016.8
20260503013603 49 120 0.0 1.0 0.00 0.00 0.00 80 1016.7
20260503013403 49 120 0.0 2.0 0.00 0.00 0.00 80 1016.7
20260503013303 49 120 0.0 2.0 0.00 0.00 0.00 80 1016.6
20260503013204 49 120 0.0 2.0 0.00 0.00 0.00 80 1016.6
20260503013104 49 120 0.0 2.0 0.00 0.00 0.00 80 1016.6
20260503013003 49 120 0.0 2.0 0.00 0.00 0.00 80 1016.6
20260503012903 50 120 0.0 2.0 0.00 0.00 0.00 80 1016.6
20260503012803 50 120 0.0 2.0 0.00 0.00 0.00 80 1016.5
20260503012704 50 120 0.0 2.0 0.00 0.00 0.00 80 1016.5
20260503012603 50 120 0.0 2.0 0.00 0.00 0.00 80 1016.5
20260503012503 50 120 0.0 1.0 0.00 0.00 0.00 80 1016.5
20260503012403 50 120 0.0 1.0 0.00 0.00 0.00 80 1016.5
20260503012305 50 120 0.0 1.0 0.00 0.00 0.00 80 1016.5
20260503012203 50 120 0.0 2.0 0.00 0.00 0.00 80 1016.5
20260503012003 50 120 0.0 2.0 0.00 0.00 0.00 80 1016.5
20260503011903 50 120 0.0 2.0 0.00 0.00 0.00 80 1016.5
20260503011803 50 120 0.0 2.0 0.00 0.00 0.00 80 1016.5
20260503011704 50 120 0.0 2.0 0.00 0.00 0.00 80 1016.4
20260503011604 50 120 0.0 2.0 0.00 0.00 0.00 80 1016.4
20260503011503 50 120 0.0 2.0 0.00 0.00 0.00 80 1016.4
20260503011305 50 120 0.0 3.0 0.00 0.00 0.00 80 1016.4
20260503011204 50 120 0.0 3.0 0.00 0.00 0.00 80 1016.4
20260503011104 50 122 0.0 3.0 0.00 0.00 0.00 80 1016.4
20260503011017 50 122 0.0 3.0 0.00 0.00 0.00 80 1016.3
20260503010903 50 122 0.0 3.0 0.00 0.00 0.00 80 1016.3
20260503010703 50 122 0.0 3.0 0.00 0.00 0.00 80 1016.3
20260503010603 50 122 0.0 3.0 0.00 0.00 0.00 80 1016.3
20260503010504 50 122 0.0 3.0 0.00 0.00 0.00 80 1016.3
20260503010303 50 125 0.0 3.0 0.00 0.00 0.00 80 1016.2
20260503010203 50 127 0.0 2.0 0.00 0.00 0.00 80 1016.2
20260503010104 50 127 0.0 2.0 0.00 0.00 0.00 80 1016.2
20260503010004 50 127 0.0 2.0 0.00 0.00 0.00 80 1016.2
20260503005903 50 127 0.0 2.0 0.00 0.00 0.00 80 1016.2
20260503005803 50 127 0.0 2.0 0.00 0.00 0.00 80 1016.2
20260503005703 50 128 1.0 2.0 0.00 0.00 0.00 80 1016.2
20260503005403 51 128 1.0 2.0 0.00 0.00 0.00 80 1016.2
20260503005304 51 128 1.0 2.0 0.00 0.00 0.00 80 1016.2
20260503005204 51 129 0.0 2.0 0.00 0.00 0.00 79 1016.2
20260503005104 51 129 0.0 2.0 0.00 0.00 0.00 79 1016.2
20260503004903 51 130 0.0 3.0 0.00 0.00 0.00 79 1016.2
20260503004803 51 128 0.0 4.0 0.00 0.00 0.00 80 1016.2
20260503004703 51 126 0.0 4.0 0.00 0.00 0.00 79 1016.2
20260503004603 51 125 0.0 4.0 0.00 0.00 0.00 79 1016.2
20260503004503 51 123 0.0 4.0 0.00 0.00 0.00 79 1016.2
20260503004404 51 122 0.0 4.0 0.00 0.00 0.00 79 1016.2
20260503004304 51 123 0.0 4.0 0.00 0.00 0.00 79 1016.2
20260503004203 51 123 1.0 4.0 0.00 0.00 0.00 79 1016.1
20260503004104 51 113 1.0 4.0 0.00 0.00 0.00 79 1016.1
20260503004003 51 94 1.0 4.0 0.00 0.00 0.00 79 1016.1
20260503003903 51 90 1.0 4.0 0.00 0.00 0.00 79 1016.2
20260503003803 51 94 1.0 3.0 0.00 0.00 0.00 79 1016.1
20260503003704 51 92 1.0 3.0 0.00 0.00 0.00 79 1016.1
20260503003604 51 71 1.0 3.0 0.00 0.00 0.00 79 1016.2
20260503003503 51 47 1.0 3.0 0.00 0.00 0.00 79 1016.2
20260503003404 52 30 1.0 3.0 0.00 0.00 0.00 79 1016.2
20260503003316 52 14 1.0 3.0 0.00 0.00 0.00 79 1016.2
20260503003303 52 12 1.0 3.0 0.00 0.00 0.00 79 1016.2
20260503003203 52 2 1.0 3.0 0.00 0.00 0.00 79 1016.2
20260503003004 52 4 1.0 3.0 0.00 0.00 0.00 79 1016.2
20260503002903 52 2 1.0 5.0 0.00 0.00 0.00 79 1016.0
20260503002820 52 5 1.0 5.0 0.00 0.00 0.00 79 1016.0
20260503002703 52 12 2.0 5.0 0.00 0.00 0.00 79 1016.0
20260503002503 52 13 2.0 5.0 0.00 0.00 0.00 79 1016.0
20260503002403 52 17 2.0 5.0 0.00 0.00 0.00 79 1016.0
20260503002305 52 20 2.0 5.0 0.00 0.00 0.00 79 1016.0
20260503002203 52 23 2.0 5.0 0.00 0.00 0.00 79 1016.0
20260503002103 52 25 2.0 5.0 0.00 0.00 0.00 79 1015.9
20260503002003 52 22 2.0 5.0 0.00 0.00 0.00 79 1015.9
20260503001904 52 24 2.0 5.0 0.00 0.00 0.00 79 1015.9
20260503001818 52 19 2.0 5.0 0.00 0.00 0.00 79 1015.8
20260503001804 52 16 2.0 5.0 0.00 0.00 0.00 79 1015.8
20260503001704 52 356 2.0 5.0 0.00 0.00 0.00 79 1015.8
20260503001503 52 279 1.0 4.0 0.00 0.00 0.00 80 1015.7
20260503001404 52 236 1.0 4.0 0.00 0.00 0.00 80 1015.7
20260503001303 52 244 1.0 3.0 0.00 0.00 0.00 79 1015.7
20260503001203 52 247 1.0 3.0 0.00 0.00 0.00 79 1015.7
20260503001103 52 252 1.0 3.0 0.00 0.00 0.00 79 1015.8
20260503001003 52 216 1.0 3.0 0.00 0.00 0.00 79 1015.7
20260503000903 53 211 1.0 3.0 0.00 0.00 0.00 79 1015.7
20260503000804 53 208 1.0 3.0 0.00 0.00 0.00 79 1015.8
20260503000703 53 201 1.0 3.0 0.00 0.00 0.00 79 1015.8
20260503000617 53 208 1.0 4.0 0.00 0.00 0.00 79 1015.8
20260503000604 53 206 1.0 4.0 0.00 0.00 0.00 79 1015.8
20260503000503 53 202 1.0 4.0 0.00 0.00 0.00 79 1015.8
20260503000304 53 200 1.0 4.0 0.00 0.00 0.00 79 1015.8
20260503000204 53 202 1.0 4.0 0.00 0.00 0.00 79 1015.7
20260503000003 53 207 1.0 4.0 0.00 0.00 0.00 79 1015.7
20260502235919 53 206 1.0 4.0 0.00 0.00 0.00 79 1015.7
20260502235904 53 205 1.0 4.0 0.00 0.00 0.00 79 1015.7
20260502235819 53 203 1.0 4.0 0.00 0.00 0.00 79 1015.7
20260502235804 53 202 1.0 4.0 0.00 0.00 0.00 78 1015.7
20260502235503 53 200 1.0 3.0 0.00 0.00 0.00 79 1015.6
20260502235403 53 206 1.0 3.0 0.00 0.00 0.00 79 1015.6
20260502235305 53 206 1.0 3.0 0.00 0.00 0.00 78 1015.5
20260502235103 53 206 0.0 2.0 0.00 0.00 0.00 78 1015.6
20260502235003 53 206 0.0 4.0 0.00 0.00 0.00 79 1015.5
20260502234803 53 209 0.0 4.0 0.00 0.00 0.00 79 1015.5
20260502234704 53 209 0.0 4.0 0.00 0.00 0.00 79 1015.5
20260502234603 53 210 0.0 4.0 0.00 0.00 0.00 80 1015.5
20260502234503 53 211 0.0 4.0 0.00 0.00 0.00 79 1015.5
20260502234403 53 211 1.0 4.0 0.00 0.00 0.00 78 1015.5
20260502234304 53 211 1.0 4.0 0.00 0.00 0.00 78 1015.5
20260502234204 54 212 1.0 4.0 0.00 0.00 0.00 77 1015.4
20260502234103 54 212 1.0 4.0 0.00 0.00 0.00 78 1015.4
20260502234004 54 210 1.0 6.0 0.00 0.00 0.00 79 1015.4
20260502233903 54 208 1.0 6.0 0.00 0.00 0.00 77 1015.4
20260502233804 54 207 1.0 6.0 0.00 0.00 0.00 77 1015.4
20260502233703 54 201 1.0 6.0 0.00 0.00 0.00 77 1015.3
20260502233603 54 196 1.0 6.0 0.00 0.00 0.00 77 1015.3
20260502233504 54 209 1.0 6.0 0.00 0.00 0.00 76 1015.3
20260502233417 54 205 1.0 6.0 0.00 0.00 0.00 76 1015.2
20260502233404 54 204 1.0 6.0 0.00 0.00 0.00 76 1015.2
20260502233304 54 200 2.0 6.0 0.00 0.00 0.00 76 1015.2
20260502233103 54 184 2.0 6.0 0.00 0.00 0.00 75 1015.3
20260502233003 54 189 2.0 6.0 0.00 0.00 0.00 74 1015.3
20260502232903 54 202 2.0 6.0 0.00 0.00 0.00 74 1015.2
20260502232819 54 223 2.0 4.0 0.00 0.00 0.00 74 1015.2
20260502232803 54 228 2.0 4.0 0.00 0.00 0.00 74 1015.2
20260502232718 54 230 2.0 4.0 0.00 0.00 0.00 74 1015.2
20260502232703 54 244 2.0 4.0 0.00 0.00 0.00 74 1015.2
20260502232517 55 220 1.0 5.0 0.00 0.00 0.00 73 1015.2
20260502232417 55 187 1.0 5.0 0.00 0.00 0.00 73 1015.3
20260502232403 55 190 1.0 5.0 0.00 0.00 0.00 73 1015.3
20260502232105 55 202 1.0 5.0 0.00 0.00 0.00 72 1015.3
20260502232005 55 186 1.0 5.0 0.00 0.00 0.00 72 1015.3
20260502231903 55 178 1.0 5.0 0.00 0.00 0.00 71 1015.2
20260502231803 55 170 1.0 5.0 0.00 0.00 0.00 71 1015.2
20260502231703 55 170 1.0 5.0 0.00 0.00 0.00 70 1015.2
20260502231603 55 170 1.0 5.0 0.00 0.00 0.00 70 1015.2
20260502231503 55 178 1.0 5.0 0.00 0.00 0.00 70 1015.2
20260502231403 55 187 1.0 5.0 0.00 0.00 0.00 70 1015.0
20260502231318 55 185 1.0 5.0 0.00 0.00 0.00 70 1015.0
20260502231303 55 183 1.0 5.0 0.00 0.00 0.00 70 1015.1
20260502231219 55 184 1.0 5.0 0.00 0.00 0.00 70 1015.1
20260502231204 55 189 1.0 5.0 0.00 0.00 0.00 70 1015.1
20260502231117 55 200 1.0 5.0 0.00 0.00 0.00 69 1015.0
20260502230803 56 263 2.0 11.0 0.00 0.00 0.00 69 1015.0
20260502230718 56 264 2.0 11.0 0.00 0.00 0.00 68 1015.0
20260502230704 56 269 2.0 11.0 0.00 0.00 0.00 68 1015.0
20260502230604 56 260 2.0 11.0 0.00 0.00 0.00 68 1015.0
20260502230404 56 256 2.0 11.0 0.00 0.00 0.00 68 1014.9
20260502230303 56 267 2.0 11.0 0.00 0.00 0.00 67 1014.9
20260502230231 56 289 2.0 11.0 0.00 0.00 0.00 67 1014.9
20260502230203 56 288 2.0 11.0 0.00 0.00 0.00 67 1014.9
20260502230104 56 263 2.0 11.0 0.00 0.00 0.00 66 1014.9
20260502225903 57 172 2.0 8.0 0.00 0.00 0.00 65 1014.8
20260502225817 57 342 2.0 8.0 0.00 0.00 0.00 65 1014.8
20260502225804 57 343 2.0 8.0 0.00 0.00 0.00 65 1014.8
20260502225703 57 360 2.0 8.0 0.00 0.00 0.00 64 1014.8
20260502225503 57 359 2.0 8.0 0.00 0.00 0.00 64 1014.6
20260502225403 58 358 2.0 8.0 0.00 0.00 0.00 63 1014.6
20260502225304 58 350 2.0 8.0 0.00 0.00 0.00 62 1014.5
20260502225103 58 303 2.0 7.0 0.00 0.00 0.00 61 1014.6
20260502225003 59 293 2.0 7.0 0.00 0.00 0.00 61 1014.6
20260502224918 59 280 2.0 7.0 0.00 0.00 0.00 60 1014.6
20260502224904 59 273 2.0 7.0 0.00 0.00 0.00 60 1014.6
20260502224803 59 255 2.0 8.0 0.00 0.00 0.00 59 1014.5
20260502224603 59 250 3.0 10.0 0.00 0.00 0.00 58 1014.4
20260502224504 59 254 3.0 15.0 0.00 0.00 0.00 57 1014.4
20260502224403 60 248 3.0 15.0 0.00 0.00 0.00 57 1014.4
20260502224303 60 252 3.0 15.0 0.00 0.00 0.00 56 1014.3
20260502224204 60 267 3.0 15.0 0.00 0.00 0.00 55 1014.4
20260502224103 60 268 3.0 15.0 0.00 0.00 0.00 54 1014.4
20260502224003 60 267 3.0 15.0 0.00 0.00 0.00 53 1014.2
20260502223803 61 282 3.0 15.0 0.00 0.00 0.00 51 1014.1
20260502223703 61 284 3.0 15.0 0.00 0.00 0.00 49 1013.8
20260502223603 61 286 2.0 15.0 0.00 0.00 0.00 48 1013.8
20260502223504 61 284 2.0 6.0 0.00 0.00 0.00 48 1013.7
20260502223403 61 290 1.0 6.0 0.00 0.00 0.00 48 1013.7
20260502223304 62 293 1.0 6.0 0.00 0.00 0.00 46 1013.6
20260502223218 62 297 1.0 6.0 0.00 0.00 0.00 47 1013.6
20260502223103 62 299 1.0 6.0 0.00 0.00 0.00 46 1013.6
20260502222903 62 310 1.0 6.0 0.00 0.00 0.00 46 1013.6
20260502222804 62 316 1.0 6.0 0.00 0.00 0.00 48 1013.6
20260502222704 62 305 1.0 3.0 0.00 0.00 0.00 48 1013.5
20260502222603 62 310 1.0 3.0 0.00 0.00 0.00 48 1013.5
20260502222503 62 308 1.0 3.0 0.00 0.00 0.00 45 1013.4
20260502222403 62 308 1.0 3.0 0.00 0.00 0.00 45 1013.5
20260502222305 62 307 1.0 3.0 0.00 0.00 0.00 46 1013.5
20260502222203 62 307 1.0 3.0 0.00 0.00 0.00 48 1013.5
20260502222119 62 305 1.0 3.0 0.00 0.00 0.00 46 1013.5
20260502222017 62 310 1.0 3.0 0.00 0.00 0.00 47 1013.4
20260502222003 62 312 1.0 3.0 0.00 0.00 0.00 47 1013.4
20260502221918 62 312 1.0 3.0 0.00 0.00 0.00 48 1013.4
20260502221719 63 311 1.0 3.0 0.00 0.00 0.00 48 1013.4
20260502221618 63 324 1.0 4.0 0.00 0.00 0.00 48 1013.4
20260502221603 63 323 1.0 4.0 0.00 0.00 0.00 48 1013.4
20260502221304 63 328 1.0 4.0 0.00 0.00 0.00 47 1013.4
20260502221203 63 315 1.0 4.0 0.00 0.00 0.00 45 1013.3
20260502221103 63 331 1.0 4.0 0.00 0.00 0.00 46 1013.3
20260502221003 63 234 1.0 4.0 0.00 0.00 0.00 48 1013.3
20260502220903 63 284 1.0 4.0 0.00 0.00 0.00 46 1013.3
20260502220819 63 297 1.0 4.0 0.00 0.00 0.00 45 1013.3
20260502220704 64 302 0.0 4.0 0.00 0.00 0.00 46 1013.2
20260502220503 64 306 0.0 3.0 0.00 0.00 0.00 45 1013.2
20260502220403 64 306 0.0 3.0 0.00 0.00 0.00 45 1013.1
20260502220304 64 308 0.0 3.0 0.00 0.00 0.00 45 1013.1
20260502220218 64 315 0.0 2.0 0.00 0.00 0.00 50 1013.1
20260502220103 63 315 0.0 2.0 0.00 0.00 0.00 46 1013.0
20260502215903 64 315 0.0 1.0 0.00 0.00 0.00 51 1013.0
20260502215804 64 315 0.0 1.0 0.00 0.00 0.00 48 1013.0
20260502215703 63 315 0.0 1.0 0.00 0.00 0.00 50 1013.1
20260502215603 63 315 0.0 1.0 0.00 0.00 0.00 47 1013.1
20260502215503 63 315 0.0 1.0 0.00 0.00 0.00 47 1013.1
20260502215404 63 307 0.0 2.0 0.00 0.00 0.00 47 1013.1
20260502215305 63 306 0.0 2.0 0.00 0.00 0.00 48 1013.1
20260502215203 63 304 0.0 2.0 0.00 0.00 0.00 47 1013.1
20260502215103 63 269 0.0 3.0 0.00 0.00 0.00 46 1013.2
20260502215004 63 269 1.0 3.0 0.00 0.00 0.00 46 1013.2
20260502214903 63 279 1.0 3.0 0.00 0.00 0.00 47 1013.2
20260502214803 63 293 1.0 3.0 0.00 0.00 0.00 46 1013.2
20260502214704 63 289 1.0 3.0 0.00 0.00 0.00 47 1013.2
20260502214618 63 276 1.0 3.0 0.00 0.00 0.00 46 1013.2
20260502214603 63 275 1.0 3.0 0.00 0.00 0.00 46 1013.2
20260502214503 63 268 1.0 3.0 0.00 0.00 0.00 47 1013.2
20260502214303 63 271 1.0 3.0 0.00 0.00 0.00 46 1013.1
20260502214204 63 272 1.0 3.0 0.00 0.00 0.00 46 1013.1
20260502214103 63 286 1.0 3.0 0.00 0.00 0.00 48 1013.1
20260502214003 62 287 1.0 3.0 0.00 0.00 0.00 49 1013.1